Te Punaha Atea-1

operational
NORAD ID: 64533 Int'l Des: 2025-135 Owner: TPA Country: NZ
LEOCIRCULARRETROGRADESSO

About Te Punaha Atea-1

Description loading...

Live Position

Loading 3D Globe...

Upcoming Passes

Altitude History

Altitude vs Time

uPlot chart will show altitude changes over time

Two-Line Element Set

1 64533U 25135F 25315.30022798 .00015376 00000-0 73669-3 0 9990
2 64533 97.4540 67.5586 0004555 216.0771 144.0157 15.19011802 21746
Epoch: Nov 11, 2025 • Age: 26 hours

Current Status

Altitude 510.2 km
Velocity 7.61 km/s
Sub-Earth Point 25.15°N, 62.67°E
Launch Date Jun 23, 2025
Age 0.3 years
Type other

Technical Details

Classification Payload
Mass 5.00 kg
Dry Mass 5.00 kg
Total Mass 5.00 kg
Length 0.30 m
Diameter 0.10 m
Span 3.00 m
Shape Box
Manufacturer NANAV/TPA
Bus Type Cubesat 3U
Phase Status In Orbit
Owner/State TPA/NZ

Large Constellations

Loading constellations...